CZ-6A DEB, 54266

Orbit data source: Space-Track

CZ-6A DEB, 54266 is space debris in SSO originally from a launch on Fri, 11 Nov 2022 UTC launched from the Taiyaun Space Center, China (TSC). Debris objects in space refer to the collection of defunct objects orbiting the Earth. Examples of debris include non-operational satellites, rocket bodies, and fragments generated from explosions, collisions, or faulty payload assembly.

Loading next visibility...
Identifier
54266, 2022-151H
Orbit
SSO
Country
Flag of CNCN / PRC
Related business
Manufacturer
SAST
Mission
Spacecraft
Bus & Motor
Unknown
Mass
Unknown
Launch date (UTC)
2022-11-11 (3 years ago)
Launch vehicle
Unknown
Launch site
Taiyaun Space Center, China (TSC)
Object type
Payload
Rocket body
Debris
Shape & HBR
Unknown shape, 0.1 m
Radar Cross Section
Small (<0.1 m²)

Expand to show TLE details & history
Last TLE update: 11 hours ago

TLE from 11 hours ago
0 CZ-6A DEB
1 54266U 22151H   25351.62125749  .00000115  00000-0  18956-3 0  9995
2 54266  99.0167 238.2170 0410542 150.5621 211.9320 13.33215938150716
Epoch: 2025-12-17T14:54Z
TLE epoch observation values (Epoch: 2025-12-17T14:54:36.647Z)
Latitude
-0.00004°
Longitude
-71.92418°
Altitude
1,402.625 km
Speed
7.031 km/s
True Right ascension
15h 52m 52s
True Declination
0° 00' 00"
Sunlit
Object was in daylight at epoch
Visualization orbit readout
Latitude
Unknown
Longitude
Unknown
Altitude
Unknown
Speed
Unknown
Apparent Right ascension
Unknown
Apparent Declination
Unknown
Sunlit
N/A
Visualization observer readout
Local Sidereal Time
00:26:43
Azimuth
Unknown
Elevation
Unknown
Doppler factor
Unknown
Orbital elements
Apogee altitude
1,440.261 km
Perigee altitude
823.621 km
Semi-major axis
7,510.078 km
Eccentricity
0.04105
Inclination
99.0167°
RAAN
238.217°
Arg. of periapsis
150.5621°
True anomaly
209.54844°
Mean anomaly
211.932°
Eccentric anomaly
210.73002°
Mean motion
3.33485 °/min
Orbital period
107.95 mins
BSTAR
0.00018956
Loading maneuver chart data...
Computing Atmospheric mass density...
Loading historical data...
Loading historical data...
Loading historical data...
Loading historical data...
Loading historical data...
Loading historical data...
Loading historical data...

Documentation

Showing up to 5 results
|